Location: Twillingate Astronomical Observatory
(49.6173°N, 54.7580°W)
Time: 16:26:20
(UTC-02:-30)

Amateur Radio Satellites - All Passes

Search period start: 24 April 2017 15:56
Search period end: 25 April 2017 15:56
Location: Twillingate Astronomical Observatory, 49.6173°N, 54.7580°W

Satellite Date Start Highest point End Downlink Frequencies (MHz)
Time Altitude Azimuth
DX 1 24 Apr 16:11:41 16:13:23 12° 306° (NW) 16:15:05 434.975-435.025
ITUPSAT 1 24 Apr 16:11:53 16:16:40 66° 103° (ESE) 16:21:25 437.325
BEESAT 2 24 Apr 16:14:55 16:18:54 80° 128° (SE) 16:22:57 435.950
YUBILEINY 24 Apr 16:18:34 16:27:23 85° 80° (E) 16:36:12 435.215
ITAMSAT 1 24 Apr 16:20:32 16:25:18 35° 263° (W) 16:30:04 435.822/435.867
BEESAT 3 24 Apr 16:22:24 16:26:12 42° 317° (NW) 16:30:03 437.485
CUBESAT XI-V 24 Apr 16:35:26 16:37:48 14° 87° (E) 16:40:09 437.345
RS-15 24 Apr 16:47:59 17:00:25 88° 51° (NE) 17:12:18 29.354- 29.394
ISS 24 Apr 16:55:31 16:57:06 13° 223° (SW) 16:58:42 437.550
SO-50 24 Apr 17:00:58 17:04:42 26° 244° (WSW) 17:08:26 436.795
STARS 24 Apr 17:03:27 17:04:14 10° 86° (E) 17:05:01 437.465
XW-2F 24 Apr 17:06:56 17:08:55 14° 60° (ENE) 17:10:53 145.980 - 146.000
DOVE 4 24 Apr 17:07:07 17:11:43 31° 64° (ENE) 17:16:16 437.250
CUTE-I 24 Apr 17:10:08 17:14:20 24° 58° (ENE) 17:18:31 437.470
BEESAT 24 Apr 17:11:03 17:15:27 38° 294° (WNW) 17:19:52 436.000
NUDT-PHONESAT 24 Apr 17:25:43 17:28:12 18° 63° (ENE) 17:30:42 437.300
MOZHAYETS 4 24 Apr 17:27:15 17:31:40 47° 291° (WNW) 17:36:05
HO-68 24 Apr 17:41:36 17:46:47 22° 48° (NE) 17:51:59 435.675
AO-7 24 Apr 17:42:42 17:48:11 19° 273° (W) 17:53:42 .
ITUPSAT 1 24 Apr 17:50:36 17:54:03 20° 301° (WNW) 17:57:30 437.325
XW-2D 24 Apr 17:52:59 17:56:31 41° 70° (ENE) 18:00:05 145.860 - 145.880
BEESAT 2 24 Apr 17:54:03 17:57:09 21° 329° (NNW) 18:00:18 435.950
KKS-1 24 Apr 17:57:56 18:02:25 76° 104° (ESE) 18:06:50 437.445
XW-2B 24 Apr 17:59:45 18:03:21 47° 72° (ENE) 18:07:00 145.730 - 145.750
CUTE 1.7 + AOD 2 24 Apr 18:01:15 18:02:00 10° 55° (NE) 18:02:45 437.475
BEESAT 3 24 Apr 18:02:48 18:04:48 13° 339° (NNW) 18:06:49 437.485
LilacSat-2 24 Apr 18:07:37 18:11:20 62° 74° (ENE) 18:15:05 437.200
CUBESAT XI-V 24 Apr 18:11:03 18:15:49 85° 285° (WNW) 18:20:32 437.345
XW-2C 24 Apr 18:11:26 18:15:08 66° 74° (ENE) 18:18:53 145.795 - 145.815
KAITUO 1B 24 Apr 18:15:26 18:19:03 58° 73° (ENE) 18:22:43 145.475/437.950
YUBILEINY 24 Apr 18:16:32 18:23:08 25° 283° (WNW) 18:29:45 435.215
XW-2A 24 Apr 18:17:13 18:18:03 11° 60° (ENE) 18:18:53 145.665 - 145.685
SEEDS 24 Apr 18:25:09 18:26:47 12° 57° (ENE) 18:28:26 437.485
STARS 24 Apr 18:36:53 18:41:18 85° 108° (ESE) 18:45:39 437.465
XW-2F 24 Apr 18:38:54 18:42:36 62° 259° (W) 18:46:19 145.980 - 146.000
CUBEBUG 2 24 Apr 18:39:16 18:41:09 13° 58° (ENE) 18:43:02 437.445
DOVE 4 24 Apr 18:44:07 18:49:13 46° 262° (W) 18:54:16 437.250
CUTE-I 24 Apr 18:48:39 18:53:58 64° 258° (WSW) 18:59:18 437.470
NUDT-PHONESAT 24 Apr 18:58:18 19:01:49 44° 261° (W) 19:05:23 437.300
RS-15 24 Apr 19:01:22 19:11:32 33° 256° (WSW) 19:21:21 29.354- 29.394
AO-85 24 Apr 19:20:58 19:22:12 11° 15° (NNE) 19:23:26 145.980
STRAND 1 24 Apr 19:24:06 19:27:12 16° 88° (E) 19:30:18 437.568
HO-68 24 Apr 19:26:24 19:33:33 81° 70° (ENE) 19:40:45 435.675
XW-2D 24 Apr 19:28:17 19:30:55 18° 268° (W) 19:33:33 145.860 - 145.880
ZACube-1 24 Apr 19:31:55 19:34:20 15° 59° (ENE) 19:36:44 437.345
CUTE 1.7 + AOD 2 24 Apr 19:32:51 19:37:03 72° 73° (ENE) 19:41:17 437.475
XW-2B 24 Apr 19:35:29 19:37:50 16° 270° (W) 19:40:12 145.730 - 145.750
KKS-1 24 Apr 19:35:42 19:38:26 16° 303° (WNW) 19:41:09 437.445
AAUSAT CUBESAT 2 24 Apr 19:38:11 19:41:46 29° 66° (ENE) 19:45:24 437.432
AO-73 24 Apr 19:40:02 19:42:39 16° 60° (ENE) 19:45:15 145.935
LilacSat-2 24 Apr 19:44:21 19:46:03 13° 272° (W) 19:47:45 437.200
XW-2A 24 Apr 19:46:58 19:50:19 69° 258° (WSW) 19:53:41 145.665 - 145.685
XW-2C 24 Apr 19:48:20 19:49:47 12° 272° (W) 19:51:14 145.795 - 145.815
CUBESAT XI-V 24 Apr 19:50:02 19:52:28 14° 304° (NW) 19:54:54 437.345
KAITUO 1B 24 Apr 19:51:41 19:53:27 13° 271° (W) 19:55:14 145.475/437.950
O/OREOS (USA 219) 24 Apr 19:55:38 19:59:51 33° 53° (NE) 20:03:59 437.305
SEEDS 24 Apr 19:57:36 20:01:48 86° 75° (ENE) 20:06:03 437.485
Oscar 11 24 Apr 19:57:54 20:01:08 21° 62° (ENE) 20:04:25 .
UWE-3 24 Apr 20:05:04 20:09:09 47° 71° (ENE) 20:13:12 435.000/436.395/437.385
CUBEBUG 2 24 Apr 20:12:48 20:17:11 89° 75° (ENE) 20:21:28 437.445
STARS 24 Apr 20:14:41 20:17:01 14° 304° (WNW) 20:19:22 437.465
M-CUBED/EXP-1 PRIME 24 Apr 20:30:33 20:34:40 40° 103° (ESE) 20:38:29 437.505
DELFI C3 24 Apr 20:44:57 20:47:46 19° 62° (ENE) 20:50:37 145.870
AO-85 24 Apr 21:00:13 21:03:47 32° 39° (NE) 21:07:25 145.980
STRAND 1 24 Apr 21:01:54 21:07:01 81° 287° (WNW) 21:12:08 437.568
ZACube-1 24 Apr 21:05:56 21:10:08 71° 257° (WSW) 21:14:18 437.345
NO-84 24 Apr 21:07:06 21:10:15 31° 140° (SE) 21:13:11 435.350 FM
CUTE 1.7 + AOD 2 24 Apr 21:11:17 21:13:24 13° 273° (W) 21:15:31 437.475
AAUSAT CUBESAT 2 24 Apr 21:13:28 21:17:11 32° 264° (W) 21:20:57 437.432
AO-73 24 Apr 21:14:19 21:18:28 63° 258° (WSW) 21:22:36 145.935
BEESAT 2 24 Apr 21:14:24 21:15:59 12° 16° (NNE) 21:17:33 435.950
HO-68 24 Apr 21:16:33 21:22:04 24° 270° (W) 21:27:39 435.675
BEESAT 3 24 Apr 21:20:36 21:23:21 17° 27° (NNE) 21:26:04 437.485
Oscar 11 24 Apr 21:32:49 21:36:59 49° 261° (W) 21:41:12 .
O/OREOS (USA 219) 24 Apr 21:35:04 21:39:17 36° 252° (WSW) 21:43:27 437.305
SEEDS 24 Apr 21:36:52 21:38:07 11° 274° (W) 21:39:22 437.485
UWE-3 24 Apr 21:42:43 21:45:53 20° 268° (W) 21:49:00 435.000/436.395/437.385
CUBEBUG 2 24 Apr 21:53:10 21:54:25 11° 273° (W) 21:55:39 437.445
OBJECT BX 24 Apr 22:00:05 22:03:43 83° 75° (ENE) 22:07:23 145.990 - 145.960
FO-29 24 Apr 22:03:28 22:05:11 11° 85° (E) 22:06:55 435.910
M-CUBED/EXP-1 PRIME 24 Apr 22:05:14 22:08:55 27° 303° (WNW) 22:12:23 437.505
DELFI C3 24 Apr 22:18:22 22:22:14 49° 261° (W) 22:26:09 145.870
TIGRISAT 24 Apr 22:32:58 22:36:23 23° 93° (E) 22:39:49 435.000
ESTCUBE 1 24 Apr 22:35:13 22:38:49 24° 62° (ENE) 22:42:27 437.505/2401.250
AO-85 24 Apr 22:40:32 22:44:14 38° 238° (WSW) 22:48:02 145.980
STRAND 1 24 Apr 22:42:36 22:45:26 15° 307° (NW) 22:48:16 437.568
NO-84 24 Apr 22:44:21 22:47:41 54° 338° (NNW) 22:50:45 435.350 FM
BEESAT 2 24 Apr 22:51:14 22:54:56 32° 39° (NE) 22:58:37 435.950
UNISAT 6 24 Apr 22:53:06 22:57:06 38° 97° (E) 23:01:08 437.425
BEESAT 3 24 Apr 22:57:35 23:01:39 71° 49° (NE) 23:05:39 437.485
VELOX 1 24 Apr 22:59:51 23:02:19 15° 57° (ENE) 23:04:48 145.980
PRISM 24 Apr 23:02:45 23:06:57 74° 104° (ESE) 23:11:04 437.425
LO-87 24 Apr 23:11:34 23:15:12 82° 77° (ENE) 23:18:52 145.935 - 145.965
AIST 2D 24 Apr 23:29:27 23:31:00 12° 89° (E) 23:32:33 435.315
QB50P2 24 Apr 23:41:11 23:42:41 12° 87° (E) 23:44:11 145.880/145.840
FO-29 24 Apr 23:46:00 23:51:13 81° 104° (ESE) 23:56:36 435.910
DX 1 24 Apr 23:58:07 00:01:26 21° 61° (ENE) 00:04:45 434.975-435.025
50 SAT 25 Apr 00:01:14 00:04:07 24° 66° (ENE) 00:07:01 437.505
NANOSAT C BR1 25 Apr 00:04:24 00:07:10 17° 91° (E) 00:09:56 145.865
TIGRISAT 25 Apr 00:09:14 00:13:15 41° 291° (WNW) 00:17:17 435.000
ESTCUBE 1 25 Apr 00:11:02 00:15:23 47° 261° (W) 00:19:46 437.505/2401.250
SPROUT 25 Apr 00:17:24 00:21:38 62° 73° (ENE) 00:25:52 437.525
NO-84 25 Apr 00:22:48 00:25:37 28° 358° (N) 00:28:17 435.350 FM
BEESAT 2 25 Apr 00:28:57 00:32:47 40° 239° (WSW) 00:36:35 435.950
EO-79 25 Apr 00:30:00 00:33:48 32° 96° (E) 00:37:35 145.935-145.965
UNISAT 6 25 Apr 00:30:09 00:33:41 26° 296° (WNW) 00:37:14 437.425
VELOX 1 25 Apr 00:33:41 00:38:10 85° 257° (WSW) 00:42:40 145.980
DUCHIFAT 1 25 Apr 00:34:46 00:38:29 30° 96° (E) 00:42:10 145.980
BEESAT 3 25 Apr 00:36:15 00:38:44 16° 248° (WSW) 00:41:13 437.485
PRISM 25 Apr 00:39:20 00:41:41 15° 302° (WNW) 00:44:02 437.425
AIST 2D 25 Apr 01:01:07 01:04:34 55° 287° (WNW) 01:08:01 435.315
UKube-1 25 Apr 01:04:30 01:08:47 61° 71° (ENE) 01:13:04 .
POLYITAN 1 25 Apr 01:08:21 01:12:34 80° 104° (ESE) 01:16:46 437.675
BEESAT 25 Apr 01:11:00 01:11:32 10° 50° (NE) 01:12:03 436.000
QB50P2 25 Apr 01:14:50 01:19:04 83° 286° (WNW) 01:23:17 145.880/145.840
Oscar 19 25 Apr 01:28:58 01:32:15 17° 88° (E) 01:35:31 437.125/150
FO-29 25 Apr 01:32:23 01:35:47 18° 305° (NW) 01:39:12 435.910
DX 1 25 Apr 01:33:00 01:37:18 52° 259° (W) 01:41:37 434.975-435.025
50 SAT 25 Apr 01:33:58 01:36:59 27° 264° (W) 01:40:02 437.505
NANOSAT C BR1 25 Apr 01:39:07 01:43:14 55° 289° (WNW) 01:47:19 145.865
BUGSAT 1 25 Apr 01:45:24 01:49:22 54° 101° (E) 01:53:17 437.445
ITUPSAT 1 25 Apr 01:46:47 01:50:11 20° 58° (ENE) 01:53:34 437.325
SPROUT 25 Apr 01:55:17 01:57:58 16° 271° (W) 02:00:37 437.525
PCSat 25 Apr 02:00:09 02:01:47 11° 101° (ESE) 02:03:24 145.827
NO-84 25 Apr 02:00:40 02:03:36 45° 20° (NNE) 02:06:23 435.350 FM
EO-79 25 Apr 02:05:52 02:09:31 29° 294° (WNW) 02:13:08 145.935-145.965
DUCHIFAT 1 25 Apr 02:10:28 02:14:08 31° 294° (WNW) 02:17:48 145.980
VELOX 1 25 Apr 02:14:08 02:15:19 11° 274° (W) 02:16:30 145.980
UKube-1 25 Apr 02:42:24 02:45:12 17° 269° (W) 02:48:02 .
BEESAT 25 Apr 02:43:41 02:48:19 57° 70° (ENE) 02:53:00 436.000
POLYITAN 1 25 Apr 02:45:35 02:47:47 14° 302° (WNW) 02:49:59 437.675
Gurwin Techsat 1B 25 Apr 02:51:30 02:56:41 49° 99° (E) 03:01:49 435.225
QB50P2 25 Apr 02:52:40 02:54:10 12° 304° (NW) 02:55:40 145.880/145.840
MOZHAYETS 4 25 Apr 02:56:21 03:00:31 36° 67° (ENE) 03:04:42
Oscar 19 25 Apr 03:06:58 03:12:13 80° 287° (WNW) 03:17:25 437.125/150
BUGSAT 1 25 Apr 03:21:39 03:24:21 18° 299° (WNW) 03:27:04 437.445
ITUPSAT 1 25 Apr 03:22:49 03:27:33 67° 257° (WSW) 03:32:19 437.325
KKS-1 25 Apr 03:25:20 03:28:16 17° 58° (ENE) 03:31:12 437.445
YUBILEINY 25 Apr 03:31:41 03:37:35 21° 75° (ENE) 03:43:29 435.215
NO-84 25 Apr 03:38:23 03:41:00 30° 220° (SW) 03:43:33 435.350 FM
PCSat 25 Apr 03:38:47 03:44:09 66° 121° (ESE) 03:49:33 145.827
CUBESAT XI-V 25 Apr 03:42:22 03:45:58 23° 61° (ENE) 03:49:36 437.345
AO-7 25 Apr 03:42:50 03:49:42 28° 92° (E) 03:56:32 .
STARS 25 Apr 04:02:49 04:05:50 18° 59° (ENE) 04:08:51 437.465
BEESAT 25 Apr 04:22:57 04:26:28 20° 269° (W) 04:30:01 436.000
ITAMSAT 1 25 Apr 04:28:12 04:33:19 58° 101° (ESE) 04:38:25 435.822/435.867
Gurwin Techsat 1B 25 Apr 04:31:52 04:36:25 30° 299° (WNW) 04:40:58 435.225
MOZHAYETS 4 25 Apr 04:33:45 04:37:44 29° 265° (W) 04:41:45
Oscar 19 25 Apr 04:47:47 04:50:44 15° 307° (NW) 04:53:42 437.125/150
KKS-1 25 Apr 04:59:52 05:04:20 70° 257° (WSW) 05:08:50 437.445
CUBESAT XI-V 25 Apr 05:18:27 05:23:00 54° 260° (W) 05:27:37 437.345
PCSat 25 Apr 05:23:11 05:27:59 30° 322° (NW) 05:32:47 145.827
YUBILEINY 25 Apr 05:24:21 05:33:03 84° 98° (E) 05:41:48 435.215
AO-7 25 Apr 05:35:00 05:43:20 80° 293° (WNW) 05:51:39 .
STARS 25 Apr 05:37:21 05:41:45 64° 258° (WSW) 05:46:09 437.465
M-CUBED/EXP-1 PRIME 25 Apr 05:46:51 05:50:01 18° 52° (NE) 05:53:12 437.505
ITAMSAT 1 25 Apr 06:08:17 06:12:27 25° 301° (WNW) 06:16:36 435.822/435.867
XW-2F 25 Apr 06:09:15 06:09:45 10° 87° (E) 06:10:15 145.980 - 146.000
NUDT-PHONESAT 25 Apr 06:25:38 06:27:22 13° 89° (E) 06:29:06 437.300
DOVE 4 25 Apr 06:38:57 06:43:25 38° 96° (E) 06:47:35 437.250
STRAND 1 25 Apr 06:43:38 06:48:16 36° 64° (ENE) 06:52:54 437.568
HO-68 25 Apr 06:52:32 06:54:37 11° 81° (E) 06:56:42 435.675
XW-2D 25 Apr 06:55:06 06:58:36 34° 97° (E) 07:02:06 145.860 - 145.880
CUTE-I 25 Apr 07:01:17 07:06:12 36° 96° (E) 07:11:04 437.470
XW-2B 25 Apr 07:01:56 07:05:31 38° 98° (E) 07:09:06 145.730 - 145.750
PCSat 25 Apr 07:10:27 07:13:11 14° 347° (NNW) 07:15:56 145.827
LilacSat-2 25 Apr 07:10:32 07:14:18 51° 100° (E) 07:18:03 437.200
XW-2C 25 Apr 07:13:39 07:17:24 53° 100° (E) 07:21:08 145.795 - 145.815
KAITUO 1B 25 Apr 07:16:07 07:19:46 45° 99° (E) 07:23:23 145.475/437.950
RS-15 25 Apr 07:17:01 07:27:28 36° 106° (ESE) 07:38:06 29.354- 29.394
SO-50 25 Apr 07:18:29 07:22:38 34° 119° (ESE) 07:26:46 436.795
M-CUBED/EXP-1 PRIME 25 Apr 07:19:14 07:23:53 82° 252° (WSW) 07:28:36 437.505
YUBILEINY 25 Apr 07:23:52 07:31:00 27° 301° (WNW) 07:38:12 435.215
AO-7 25 Apr 07:28:39 07:35:00 25° 316° (NW) 07:41:22 .
SEEDS 25 Apr 07:39:09 07:40:26 11° 86° (E) 07:41:43 437.485
XW-2F 25 Apr 07:40:36 07:44:25 79° 285° (WNW) 07:48:13 145.980 - 146.000
NUDT-PHONESAT 25 Apr 07:58:00 08:01:40 60° 287° (WNW) 08:05:20 437.300
CUBEBUG 2 25 Apr 08:00:36 08:02:31 13° 88° (E) 08:04:26 437.445
DOVE 4 25 Apr 08:16:51 08:20:59 30° 296° (WNW) 08:24:55 437.250
FO-29 25 Apr 08:21:58 08:24:07 12° 50° (NE) 08:26:13 435.910
STRAND 1 25 Apr 08:22:44 08:27:26 37° 263° (W) 08:32:10 437.568
PRISM 25 Apr 08:23:16 08:25:12 13° 57° (ENE) 08:27:10 437.425
XW-2D 25 Apr 08:29:36 08:32:40 23° 295° (WNW) 08:35:44 145.860 - 145.880
XW-2B 25 Apr 08:36:37 08:39:30 21° 296° (WNW) 08:42:24 145.730 - 145.750
HO-68 25 Apr 08:36:50 08:43:56 58° 102° (ESE) 08:51:00 435.675
XW-2A 25 Apr 08:37:08 08:40:29 65° 102° (ESE) 08:43:49 145.665 - 145.685
CUTE-I 25 Apr 08:41:22 08:46:16 38° 296° (WNW) 08:51:08 437.470
LilacSat-2 25 Apr 08:45:43 08:48:14 17° 298° (WNW) 08:50:45 437.200
XW-2C 25 Apr 08:48:49 08:51:14 16° 298° (WNW) 08:53:39 145.795 - 145.815
CUTE 1.7 + AOD 2 25 Apr 08:48:53 08:53:12 80° 104° (ESE) 08:57:30 437.475
ZACube-1 25 Apr 08:50:33 08:53:10 16° 90° (E) 08:55:48 437.345
AAUSAT CUBESAT 2 25 Apr 08:50:47 08:54:29 29° 95° (E) 08:58:09 437.432
KAITUO 1B 25 Apr 08:50:52 08:53:29 18° 297° (WNW) 08:56:06 145.475/437.950
PCSat 25 Apr 08:56:10 08:59:00 14° 14° (NNE) 09:01:50 145.827
M-CUBED/EXP-1 PRIME 25 Apr 08:57:11 08:58:59 12° 269° (W) 09:00:47 437.505
AO-73 25 Apr 08:58:22 09:01:12 17° 90° (E) 09:04:03 145.935
SO-50 25 Apr 08:58:38 09:03:02 43° 319° (NW) 09:07:24 436.795
SEEDS 25 Apr 09:12:28 09:16:45 88° 284° (WNW) 09:21:01 437.485
Oscar 11 25 Apr 09:15:52 09:19:18 22° 92° (E) 09:22:44 .
UWE-3 25 Apr 09:26:07 09:30:15 58° 101° (E) 09:34:23 435.000/436.395/437.385
RS-15 25 Apr 09:26:36 09:38:50 84° 311° (NW) 09:51:20 29.354- 29.394
Tancredo 1 25 Apr 09:29:20 09:31:39 20° 142° (SE) 09:33:59 437.200
TIGRISAT 25 Apr 09:35:31 09:39:28 35° 67° (ENE) 09:43:22 435.000
CUBEBUG 2 25 Apr 09:35:31 09:39:40 72° 285° (WNW) 09:43:49 437.445
ISS 25 Apr 09:37:09 09:39:34 19° 141° (SE) 09:42:00 437.550
DELFI C3 25 Apr 09:51:55 09:54:25 16° 90° (E) 09:56:54 145.870
PRISM 25 Apr 09:55:43 09:59:53 87° 261° (W) 10:04:05 437.425
UNISAT 6 25 Apr 09:55:48 10:00:05 58° 72° (ENE) 10:04:20 437.425
FO-29 25 Apr 10:02:11 10:08:17 58° 70° (ENE) 10:13:45 435.910
AIST 2D 25 Apr 10:09:43 10:10:01 10° 59° (ENE) 10:10:20 435.315
XW-2A 25 Apr 10:11:42 10:12:47 11° 300° (WNW) 10:13:51 145.665 - 145.685
O/OREOS (USA 219) 25 Apr 10:14:06 10:16:45 15° 99° (E) 10:19:24 437.305
HO-68 25 Apr 10:24:58 10:31:25 37° 302° (WNW) 10:37:50 435.675
ZACube-1 25 Apr 10:25:43 10:29:50 59° 288° (WNW) 10:34:01 437.345
CUTE 1.7 + AOD 2 25 Apr 10:26:08 10:28:28 14° 302° (WNW) 10:30:47 437.475
AAUSAT CUBESAT 2 25 Apr 10:26:12 10:29:57 32° 293° (WNW) 10:33:41 437.432
POLYITAN 1 25 Apr 10:31:28 10:33:41 14° 58° (ENE) 10:35:54 437.675
AO-73 25 Apr 10:33:41 10:37:46 54° 289° (WNW) 10:41:55 145.935
QB50P2 25 Apr 10:37:22 10:40:06 17° 60° (ENE) 10:42:50 145.880/145.840
PCSat 25 Apr 10:39:16 10:44:09 32° 39° (NE) 10:49:00 145.827
SO-50 25 Apr 10:41:50 10:44:37 16° 342° (NNW) 10:47:24 436.795
SEEDS 25 Apr 10:49:57 10:51:47 13° 303° (WNW) 10:53:36 437.485
Oscar 11 25 Apr 10:51:30 10:55:39 44° 291° (WNW) 10:59:46 .
OBJECT BX 25 Apr 10:58:09 11:01:47 58° 101° (E) 11:05:24 145.990 - 145.960
NANOSAT C BR1 25 Apr 11:00:20 11:03:39 23° 63° (ENE) 11:06:59 145.865
UWE-3 25 Apr 11:03:32 11:06:20 18° 299° (WNW) 11:09:09 435.000/436.395/437.385
Tancredo 1 25 Apr 11:04:08 11:07:14 83° 165° (SSE) 11:10:22 437.200
TIGRISAT 25 Apr 11:12:25 11:16:12 28° 265° (W) 11:19:58 435.000
ISS 25 Apr 11:12:26 11:15:41 80° 161° (SSE) 11:18:57 437.550
DELFI C3 25 Apr 11:25:36 11:29:33 55° 288° (WNW) 11:33:28 145.870
EO-79 25 Apr 11:26:12 11:30:11 42° 69° (ENE) 11:34:11 145.935-145.965
DUCHIFAT 1 25 Apr 11:30:22 11:34:16 39° 69° (ENE) 11:38:11 145.980
UNISAT 6 25 Apr 11:34:14 11:37:10 17° 270° (W) 11:40:04 437.425
PRISM 25 Apr 11:35:30 11:35:49 10° 274° (W) 11:36:08 437.425
AIST 2D 25 Apr 11:39:12 11:42:41 81° 258° (WSW) 11:46:11 435.315
RS-15 25 Apr 11:41:38 11:53:17 45° 341° (NNW) 12:04:58 29.354- 29.394
FO-29 25 Apr 11:48:33 11:53:41 26° 266° (W) 11:58:25 435.910
O/OREOS (USA 219) 25 Apr 11:50:57 11:55:34 75° 299° (WNW) 12:00:12 437.305
ESTCUBE 1 25 Apr 11:59:07 12:03:00 27° 94° (E) 12:06:51 437.505/2401.250
POLYITAN 1 25 Apr 12:04:41 12:08:54 80° 256° (WSW) 12:13:09 437.675
LO-87 25 Apr 12:07:41 12:11:14 54° 101° (E) 12:14:43 145.935 - 145.965
QB50P2 25 Apr 12:11:15 12:15:27 64° 258° (WSW) 12:19:40 145.880/145.840
HO-68 25 Apr 12:15:36 12:17:10 11° 326° (NW) 12:18:44 435.675
VELOX 1 25 Apr 12:20:49 12:23:04 14° 88° (E) 12:25:17 145.980
PCSat 25 Apr 12:22:32 12:27:55 61° 240° (WSW) 12:33:15 145.827
SO-50 25 Apr 12:24:54 12:26:55 13° 7° (N) 12:28:56 436.795
OBJECT BX 25 Apr 12:33:02 12:35:03 14° 299° (WNW) 12:37:04 145.990 - 145.960
NANOSAT C BR1 25 Apr 12:35:09 12:39:09 43° 261° (W) 12:43:11 145.865
BUGSAT 1 25 Apr 12:38:44 12:42:51 68° 74° (ENE) 12:46:57 437.445
Gurwin Techsat 1B 25 Apr 12:38:57 12:42:54 22° 57° (ENE) 12:46:50 435.225
Tancredo 1 25 Apr 12:40:13 12:43:17 56° 0° (N) 12:46:21 437.200
ISS 25 Apr 12:49:04 12:52:17 57° 360° (N) 12:55:31 437.550
Oscar 19 25 Apr 12:49:30 12:54:13 37° 65° (ENE) 12:58:58 437.125/150
50 SAT 25 Apr 12:53:46 12:55:41 14° 91° (E) 12:57:35 437.505
AO-7 25 Apr 12:57:56 13:03:10 19° 37° (NE) 13:08:22 .
AO-85 25 Apr 12:59:35 13:02:39 20° 116° (ESE) 13:05:37 145.980
EO-79 25 Apr 13:02:49 13:06:08 22° 267° (W) 13:09:28 145.935-145.965
DUCHIFAT 1 25 Apr 13:06:40 13:10:05 24° 266° (W) 13:13:30 145.980
DX 1 25 Apr 13:17:20 13:20:32 20° 92° (E) 13:23:42 434.975-435.025
O/OREOS (USA 219) 25 Apr 13:33:08 13:35:48 15° 319° (NW) 13:38:30 437.305
YUBILEINY 25 Apr 13:33:42 13:38:17 15° 45° (NE) 13:42:51 435.215
SPROUT 25 Apr 13:34:24 13:38:38 65° 101° (ESE) 13:42:51 437.525
ESTCUBE 1 25 Apr 13:35:40 13:39:56 40° 292° (WNW) 13:44:10 437.505/2401.250
LO-87 25 Apr 13:42:16 13:44:18 15° 299° (WNW) 13:46:17 145.935 - 145.965
VELOX 1 25 Apr 13:55:37 14:00:05 78° 287° (WNW) 14:04:30 145.980
RS-15 25 Apr 13:57:51 14:09:28 42° 15° (NNE) 14:20:48 29.354- 29.394
SO-50 25 Apr 14:05:12 14:08:57 25° 31° (NNE) 14:12:40 436.795
PCSat 25 Apr 14:09:37 14:10:13 10° 259° (W) 14:10:49 145.827
ITAMSAT 1 25 Apr 14:12:39 14:16:42 24° 59° (ENE) 14:20:46 435.822/435.867
Tancredo 1 25 Apr 14:16:13 14:19:20 82° 198° (SSW) 14:22:26 437.200
BUGSAT 1 25 Apr 14:16:31 14:18:40 14° 271° (W) 14:20:48 437.445
Gurwin Techsat 1B 25 Apr 14:17:01 14:22:20 72° 257° (WSW) 14:27:41 435.225
UKube-1 25 Apr 14:22:56 14:27:14 59° 102° (ESE) 14:31:29 .
50 SAT 25 Apr 14:25:31 14:28:55 48° 289° (WNW) 14:32:17 437.505
ISS 25 Apr 14:25:38 14:28:54 84° 204° (SSW) 14:32:10 437.550
BEESAT 2 25 Apr 14:26:36 14:27:48 11° 109° (ESE) 14:28:59 435.950
BEESAT 3 25 Apr 14:28:45 14:32:07 27° 118° (ESE) 14:35:33 437.485
Oscar 19 25 Apr 14:28:49 14:33:33 36° 264° (W) 14:38:20 437.125/150
AO-85 25 Apr 14:38:35 14:42:43 58° 314° (NW) 14:46:41 145.980
BEESAT 25 Apr 14:42:36 14:42:55 10° 85° (E) 14:43:16 436.000
AO-7 25 Apr 14:46:16 14:54:16 56° 61° (ENE) 15:02:19 .
DX 1 25 Apr 14:52:46 14:57:02 52° 290° (WNW) 15:01:15 434.975-435.025
SPROUT 25 Apr 15:11:23 15:14:06 17° 300° (WNW) 15:16:48 437.525
ITUPSAT 1 25 Apr 15:19:17 15:23:03 23° 92° (E) 15:26:49 437.325
YUBILEINY 25 Apr 15:29:03 15:37:37 54° 72° (ENE) 15:46:09 435.215
VELOX 1 25 Apr 15:34:03 15:35:46 12° 306° (NW) 15:37:30 145.980
SO-50 25 Apr 15:45:22 15:49:54 78° 232° (SW) 15:54:24 436.795
